« Back
NWS Peachtree City, Ga » Text Product » GA Regional Weather Roundup


Printer-friendly Version
Current Version              Previous Versions:   1  2  3  4  5  6  7  8  9  

Regional Weather Roundup

201
ASUS42 KFFC 011003
RWRGA
WEATHER ROUNDUP FOR GEORGIA
NATIONAL WEATHER SERVICE PEACHTREE CITY GA
600 AM EDT FRI AUG 01 2014

NOTE: "FAIR" INDICATES FEW OR NO CLOUDS BELOW 12,000 FEET WITH NO
SIGNIFICANT WEATHER AND/OR OBSTRUCTIONS TO VISIBILITY.

* = USE WITH CAUTION. THE STATIONS MARKED WITH AN ASTERISK MAY NOT
REPORT WEATHER SUCH AS PRECIPITATION, FOG, OR THUNDER AND ARE NOT
QUALITY CONTROLLED BY NWS.

THE REMARK "TC" DENOTES TEMPERATURE READING IN DEGREES CELSIUS.

GAZ001>058-011100-
NORTH GEORGIA

CITY           SKY/WX    TMP DP  RH WIND       PRES   REMARKS
ATLANTA        CLOUDY    67  65  93 E9        30.05R
ATHENS         CLOUDY    67  65  93 E7        30.06S
CHAMBLEE       CLOUDY    67  64  90 NE5       30.06R
PEACHTREE CITY CLOUDY    68  67  96 E5        30.05S
ROME           CLOUDY    67  64  90 CALM      30.05S
WEST ATLANTA   CLOUDY    68  65  90 NE6       30.05S
GAINESVILLE    CLOUDY    65  64  97 NE7       30.10R
CARTERSVILLE   CLOUDY    67  65  93 CALM      30.06S


CITY           SKY/WX    TMP DP  RH WIND       PRES   REMARKS
DALTON*        PTCLDY    64  64 100 CALM      30.06S
MARIETTA       CLOUDY    66  66  98 VRB5      30.07R
$$

GAZ059>098-102>109-011100-
CENTRAL GEORGIA

CITY           SKY/WX    TMP DP  RH WIND       PRES   REMARKS
AUGUSTA-BUSH   CLOUDY    72  69  90 N6        30.02R
AUGUSTA-DANIEL CLOUDY    70  69  97 N9        30.04R FOG
COLUMBUS       CLOUDY    72  67  84 E7        30.00S
MACON          CLOUDY    71  70  96 N5        30.01S
ROBINS AFB     CLOUDY    72  69  90 N3        30.00S


CITY           SKY/WX    TMP DP  RH WIND       PRES   REMARKS
LAGRANGE*      LGT RAIN  73  70  92 CALM      30.03R
SYLVANIA*      CLOUDY    74  74 100 CALM      30.00S FOG
MILLEDGEVILLE* CLOUDY    59  59 100 N3        30.03R
$$

GAZ099>101-110>166-011100-
SOUTH GEORGIA

CITY           SKY/WX    TMP DP  RH WIND       PRES   REMARKS
SAVANNAH       FOG       75  73  93 CALM      29.98R VSB 1/2
VALDOSTA       MOCLDY    72  65  78 CALM      29.96R
ALMA           MOCLDY    73  70  90 CALM      29.97S
ST SIMONS      PTCLDY    82  75  79 CALM      29.95R
FT STEWART     CLOUDY    74  73  97 N2        29.97R FOG
ALBANY         CLOUDY    73  72  96 N6        29.99S
HUNTER AFB     CLOUDY    75  75 100 N5        29.96R FOG
MOODY AFB      MOCLDY    73  70  91 CALM      29.96R
BRUNSWICK      PTCLDY    77  73  88 CALM      29.96R


CITY           SKY/WX    TMP DP  RH WIND       PRES   REMARKS
BAINBRIDGE*    MOCLDY    73  70  88 CALM      29.97R
MOULTRIE*      MOCLDY    72  72 100 CALM      29.97S
VIDALIA*       FOG       73  73 100 N3        29.99S VSB 1/2
WAYCROSS*      MOCLDY    76  74  93 CALM      29.97R
DOUGLAS*       PTCLDY    73  72  94 NE3       29.99R
$$



USA.gov is the U.S. government's official web portal to all federal, state and local government web resources and services.